DateTimeUTC,F1_A11,F1_S11,BsB_S11,BsG_S11,BsR_S11,BbsB_S11,BbsG_S11,BbsR_S11,BaB_A11,BaG_A11,BaR_A11,Tu_S11,T_S11,Uu_S11,U_S11,P_S11,T1_A11
2021-07-22T09:00:00Z,00000200,20000000,,,,,,,0000.44,0000.07,-000.02,18.3,25.2,08.7,05.7,0668.2,31.1
2021-07-22T09:01:00Z,00000200,20000000,,,,,,,-000.12,-000.25,-000.13,18.3,25.2,08.7,05.7,0668.2,31.1
2021-07-22T09:02:00Z,00000200,20000000,,,,,,,-000.22,0000.05,0000.11,18.3,25.2,08.7,05.7,0668.2,31.0
2021-07-22T09:03:00Z,00000200,60000000,,,,,,,0000.51,0000.56,0000.58,18.3,25.2,08.7,05.7,0668.2,31.0
2021-07-22T09:04:00Z,00000200,40000000,0002.88,0001.47,0000.80,0000.41,0000.14,0000.29,0000.58,0000.34,0000.02,18.4,25.0,08.8,05.9,0669.0,31.1
2021-07-22T09:05:00Z,00000200,00000000,0003.37,0001.63,0001.06,0000.24,0000.40,0000.09,0000.47,0000.71,0000.70,18.4,24.9,08.9,06.0,0669.2,31.0
2021-07-22T09:06:00Z,00000200,00000000,0002.77,0001.64,0001.48,0001.01,0000.18,0000.65,0001.00,0000.79,0000.67,18.4,24.9,08.9,06.0,0669.2,31.0
2021-07-22T09:07:00Z,00000200,00000000,0003.03,0002.00,0001.00,0000.50,0000.08,0000.27,0000.59,-000.05,0000.27,18.4,24.9,08.9,06.0,0669.1,31.0
2021-07-22T09:08:00Z,00000200,00000000,0002.37,0001.66,0001.41,0000.29,0000.44,0000.58,0000.33,0001.08,0000.13,18.4,24.9,09.0,06.0,0669.2,31.0
2021-07-22T09:09:00Z,00000200,00000000,0003.62,0001.68,0001.20,0001.23,-000.07,0000.43,0000.45,0000.19,0000.36,18.4,24.9,08.9,06.0,0669.2,31.0
2021-07-22T09:10:00Z,00000200,00000000,0002.73,0001.72,0001.14,0000.31,0000.26,0000.01,0000.16,0000.27,0000.47,18.4,24.9,09.0,06.0,0669.2,31.0
2021-07-22T09:11:00Z,00000200,00000000,0002.87,0001.79,0001.18,0000.16,0000.21,0000.80,0000.83,0000.69,0000.27,18.4,24.9,08.9,06.0,0669.2,31.1
2021-07-22T09:12:00Z,00000200,00000000,0003.97,0001.76,0001.16,0000.49,0000.18,0000.25,0000.56,0000.21,0000.47,18.4,24.9,08.9,06.0,0669.2,31.0
2021-07-22T09:13:00Z,00000200,00000000,0003.03,0001.89,0001.06,0000.74,0000.01,0000.71,0000.46,0000.60,0000.35,18.4,24.9,08.9,06.0,0669.2,31.0
2021-07-22T09:14:00Z,00000200,00000000,0002.95,0001.89,0001.32,0000.00,0000.12,0000.13,0000.71,0000.54,0000.84,18.4,24.8,08.8,06.0,0669.2,31.0
2021-07-22T09:15:00Z,00000200,00000000,0002.28,0001.55,0000.87,0000.65,0000.05,0000.54,0000.67,0000.80,-000.05,18.5,24.9,08.8,06.0,0669.2,31.1
2021-07-22T09:16:00Z,00000200,00000000,0002.02,0001.69,0001.05,0000.65,0000.49,0000.45,0000.29,0000.20,0000.28,18.6,24.9,08.6,05.9,0669.2,31.1
2021-07-22T09:17:00Z,00000200,00000000,0001.99,0001.32,0001.31,0000.42,0000.12,0000.37,0000.46,0000.29,0000.41,18.7,25.0,08.6,05.9,0669.2,31.1
2021-07-22T09:18:00Z,00000200,00000000,0002.88,0001.40,0000.96,-000.22,0000.13,0000.27,0000.15,0000.34,0000.58,18.7,25.0,08.6,05.9,0669.2,31.1
2021-07-22T09:19:00Z,00000200,00000000,0002.32,0001.24,0000.88,0000.40,0000.25,0000.31,0000.31,0000.46,-000.13,18.8,25.0,08.5,05.8,0669.2,31.1
2021-07-22T09:20:00Z,00000200,00000000,0002.11,0001.39,0001.25,0000.42,-000.02,0000.59,0000.54,0000.15,0000.39,18.8,25.0,08.4,05.8,0669.2,31.1
2021-07-22T09:21:00Z,00000200,00000000,0001.85,0001.84,0000.92,0000.12,0000.25,0000.40,0000.49,0000.68,0000.29,18.7,25.0,08.3,05.7,0669.2,31.1
2021-07-22T09:22:00Z,00000200,00000000,0002.44,0001.34,0000.91,0001.05,0000.13,0000.19,0000.65,0000.21,0000.46,18.7,25.0,08.4,05.8,0669.2,31.1
2021-07-22T09:23:00Z,00000200,00000000,0002.62,0001.39,0001.10,0000.32,0000.06,0000.12,-000.02,0000.56,0000.15,18.7,25.0,08.4,05.7,0669.2,31.1
2021-07-22T09:24:00Z,00000200,00000000,0002.08,0001.34,0001.07,0000.75,0000.15,0000.13,0000.52,0000.28,0000.06,18.7,25.0,08.4,05.7,0669.3,31.1
2021-07-22T09:25:00Z,00000200,00000000,0002.28,0001.31,0000.81,-000.12,0000.30,0000.42,0000.36,0000.54,0000.22,18.7,25.0,08.5,05.8,0669.3,31.1
2021-07-22T09:26:00Z,00000200,00000000,0002.12,0001.18,0001.13,0000.25,0000.24,0000.29,0000.38,0000.11,0000.66,18.7,24.9,08.4,05.7,0669.3,31.1
2021-07-22T09:27:00Z,00000200,00000000,0002.16,0001.31,0001.04,0000.73,0000.01,0000.19,0000.44,0000.46,0000.19,18.7,24.9,08.4,05.7,0669.3,31.1
2021-07-22T09:28:00Z,00000200,00000000,0002.24,0001.55,0001.26,-000.08,0000.30,0000.31,0000.86,0000.38,0000.33,18.7,24.9,08.6,05.8,0669.3,31.1
2021-07-22T09:29:00Z,00000200,00000000,0002.04,0001.53,0000.93,0000.66,-000.08,-000.14,0000.35,0000.85,0000.53,18.7,25.0,08.4,05.8,0669.3,31.1
2021-07-22T09:30:00Z,00000200,00000000,0003.12,0001.32,0000.84,-000.09,0000.34,0000.38,0000.74,0000.52,0000.58,18.7,25.0,08.5,05.8,0669.3,31.1
2021-07-22T09:31:00Z,00000200,00000000,0002.54,0001.67,0001.04,0000.56,0000.04,0000.11,0000.36,0000.24,0000.27,18.8,25.0,08.5,05.8,0669.3,31.1
2021-07-22T09:32:00Z,00000200,00000000,0002.48,0001.44,0001.22,-000.03,0000.13,0000.29,0000.59,0000.63,0000.37,18.8,25.0,08.5,05.8,0669.3,31.1
2021-07-22T09:33:00Z,00000200,00000000,0002.38,0001.29,0001.15,0000.45,0000.37,0000.46,0000.04,0000.10,0000.36,18.8,25.0,08.6,05.9,0669.2,31.1
2021-07-22T09:34:00Z,00000200,00000000,0002.17,0001.56,0000.95,0000.17,0000.05,0000.11,0000.86,0000.30,0000.26,18.8,25.0,08.5,05.8,0669.2,31.1
2021-07-22T09:35:00Z,00000200,00000000,0003.10,0001.60,0001.31,0000.59,0000.27,0000.49,0000.26,0000.47,0000.41,18.8,25.0,08.6,05.8,0669.2,31.1
2021-07-22T09:36:00Z,00000200,00000000,0002.23,0001.50,0001.25,0000.02,0000.17,0000.58,0000.62,0000.48,0000.12,18.8,25.0,08.6,05.8,0669.2,31.1
2021-07-22T09:37:00Z,00000200,00000000,0002.64,0001.52,0001.11,0000.49,0000.12,0000.56,0000.41,0000.71,0000.46,18.8,25.0,08.5,05.8,0669.3,31.1
2021-07-22T09:38:00Z,00000200,00000000,0002.68,0001.66,0000.78,-000.03,0000.07,0000.25,0000.55,0000.24,0000.37,18.7,25.0,08.7,05.9,0669.3,31.1
2021-07-22T09:39:00Z,00000200,00000000,0003.11,0001.52,0000.98,0000.78,0000.02,0000.29,0000.13,0000.48,0000.26,18.7,25.0,08.5,05.8,0669.3,31.1
2021-07-22T09:40:00Z,00000200,00000000,0002.10,0001.82,0001.05,0000.09,0000.21,0000.53,0000.42,0000.18,0000.19,18.7,25.0,08.6,05.9,0669.3,31.1
2021-07-22T09:41:00Z,00000200,00000000,0003.41,0001.55,0001.23,0000.77,0000.21,0000.29,0000.79,0000.73,0000.49,18.7,25.0,08.6,05.9,0669.3,31.1
2021-07-22T09:42:00Z,00000200,00000000,0002.63,0001.67,0000.85,0000.39,0000.10,0000.27,0000.45,0000.29,0000.08,18.7,25.0,08.7,05.9,0669.3,31.1
2021-07-22T09:43:00Z,00000200,00000000,0002.72,0001.63,0001.12,-000.44,0000.23,0000.48,0000.39,0000.57,0000.72,18.7,25.0,08.7,05.9,0669.3,31.1
2021-07-22T09:44:00Z,00000200,00000000,0002.99,0001.66,0001.21,0000.50,0000.09,0000.39,0000.99,0000.39,0000.45,18.7,25.0,08.8,06.0,0669.3,31.1
2021-07-22T09:45:00Z,00000200,00000000,0003.16,0002.22,0001.27,0000.37,0000.30,0000.32,0000.56,0000.94,0000.26,18.7,25.0,08.8,06.0,0669.3,31.1
2021-07-22T09:46:00Z,00000200,00000000,0002.48,0002.47,0001.47,0000.30,0000.09,0000.17,0000.60,0000.59,0000.79,18.7,25.0,09.0,06.1,0669.3,31.1
2021-07-22T09:47:00Z,00000200,00000000,0003.62,0001.90,0001.26,0000.22,0000.55,0000.45,0000.81,0000.54,0000.52,18.7,25.0,08.9,06.1,0669.3,31.1
2021-07-22T09:48:00Z,00000200,00000000,0003.05,0002.30,0001.47,0000.62,0000.33,0000.44,0000.74,0000.86,0000.44,18.7,24.9,09.1,06.2,0669.3,31.1
2021-07-22T09:49:00Z,00000200,00000000,0003.81,0002.42,0001.51,0001.08,0000.47,0000.09,0000.59,0000.63,0000.82,18.7,24.9,09.1,06.2,0669.2,31.1
2021-07-22T09:50:00Z,00000200,00000000,0003.68,0002.44,0001.97,0000.99,0000.05,0000.25,0001.12,0000.73,0000.13,18.7,24.9,09.1,06.2,0669.3,31.1
2021-07-22T09:51:00Z,00000200,00000000,0003.22,0002.06,0001.47,0000.28,0000.38,0000.37,0000.22,0000.44,0000.58,18.7,24.9,09.0,06.2,0669.2,31.1
2021-07-22T09:52:00Z,00000200,00000000,0003.17,0002.09,0001.19,0000.46,0000.30,0000.24,0000.96,0000.62,0000.58,18.7,24.9,09.0,06.1,0669.2,31.1
2021-07-22T09:53:00Z,00000200,00000000,0003.17,0002.32,0001.42,0000.73,0000.25,0000.35,0000.47,0000.49,0000.52,18.7,24.9,09.2,06.2,0669.3,31.1
2021-07-22T09:54:00Z,00000200,00000000,0003.28,0002.38,0001.33,0000.11,0000.53,0000.53,0000.67,0000.65,0000.42,18.7,24.9,09.2,06.2,0669.2,31.0
2021-07-22T09:55:00Z,00000200,00000000,0003.28,0002.44,0001.14,0000.06,0000.49,0000.36,0000.51,0000.49,0000.39,18.6,24.9,09.1,06.2,0669.2,31.1
2021-07-22T09:56:00Z,00000200,00000000,0003.42,0001.91,0001.59,-000.30,0000.27,0000.55,0000.50,0000.80,0000.43,18.6,24.9,09.1,06.2,0669.2,31.1
2021-07-22T09:57:00Z,00000200,40000000,,,,,,,0000.19,0000.15,0000.12,18.7,25.0,08.7,05.9,0669.2,31.1
2021-07-22T09:58:00Z,00000200,60000000,,,,,,,-000.11,-000.28,-000.10,18.4,25.1,08.9,05.9,0668.2,31.1
2021-07-22T09:59:00Z,00000200,20000000,,,,,,,0000.18,-000.14,0000.01,18.4,25.2,08.9,05.9,0668.2,31.1
